Torna al catalogo

COSMOS 970 DEB

AttivoLEO
NORAD 65011·DEBRIS·🇷🇺 Russia

Lanciato Dec 21, 1977 da Baikonur Cosmodrome

Loading…

Prossimi Passaggi (prossime 24 ore)

TLE

AggiornatoSource: Space-Track

Epoca: Sep 13, 2026, 20:18 UTC

1 65011U 77121DY  26256.84593998  .00000272  00000-0  33605-3 0  9998
2 65011  65.8322 196.0504 0124372  55.1218 337.7462 13.77253422643356

Traccia COSMOS 970 DEB in tempo reale con AllMySat

Download on the App Store